Simultaneous Nadir Overpasses (SNOs) Predictions

Prediction of SNOs over PacNW region [( 10.00, 139.50) to ( 22.70, 165.60)] between NOAA-19 and NPP Satellites:

Table of predicted SNOs over PacNW region for the next 30.0 days since TLE Epoch: 8/18/2012
Index Date (NOAA-19) Time (NOAA-19) NOAA-19 Lat,Lon Date (NPP) Time (NPP) NPP Lat,Lon Distance(km) Time Diff (sec)
1 08/21/2012 03:43:50 10.87, 145.61 08/21/2012 03:47:13 10.13, 142.42 358.24 203
2 08/21/2012 14:40:25 13.42, 165.30 08/21/2012 14:40:04 13.91, 162.94 260.81 21
3 08/21/2012 16:20:48 19.39, 141.21 08/21/2012 16:19:52 19.89, 138.99 239.59 56
4 08/22/2012 03:36:24 22.69, 145.46 08/22/2012 03:32:46 26.30, 143.27 458.43 218
5 09/02/2012 15:52:07 22.61, 148.98 09/02/2012 15:53:32 23.26, 146.15 298.82 85
6 09/03/2012 03:08:41 22.65, 152.42 09/03/2012 03:06:16 22.28, 150.62 189.33 145
7 09/14/2012<
